Flag for Grenada Weather past 2 weeks in Saint George's, Grenada

Now
81 °F

Passing clouds.


Feels Like: 86 °F
Forecast: 81 / 83 °F
Wind: 12 mph from East

Location: Point Salines Airport

Current Time: Jul 24, 2014 at 8:10:31 PM

Latest Report: Jul 24, 2014 at 7:00 PM


Visibility: N/A

Pressure: 29.92 "Hg

Humidity: 84%

Dew point: 75 °F

Location of Saint George'sLocation

Historic Weather in Saint George's — Graph

°F

Saint George's temperature yesterday

Maximum temperature yesterday: 86 °F (at 1:00 PM)
Minimum temperature yesterday: 77 °F (at 9:00 AM)
Average temperature yesterday: 81 °F

Past Weeks' High & Low Weather Summary

 TemperatureHumidityPressure
High86 °F (Jul 12, 11:00 AM)100% (Jul 14, 2:00 AM)30.09 "Hg (Jul 14, 2:00 AM)
Low75 °F (Jul 18, 10:00 AM)51% (Jul 10, 2:00 PM)29.89 "Hg (Jul 11, 12:00 PM)
Average82 °F83%29.99 "Hg
* Reported Jul 9 7:00 PM — Jul 24 7:00 PM, Saint George's, Weather by CustomWeather, © 2014

Note: Actual official high and low records may vary slightly from our data, if they occured in-between our weather recording intervals... More about our weather records

Advertising

Saint George's weather history for previous 24 hours

 ConditionsComfort  
Time TempWeatherWind HumidityBarometerVisibility
7:00 PM
Jul 24
81 °FPassing clouds.12 mph84%29.92 "HgN/A
6:00 PM84 °FPassing clouds.12 mph74%29.92 "HgN/A
5:00 PM84 °FPassing clouds.16 mph74%29.92 "HgN/A
4:00 PM86 °FPassing clouds.17 mph70%29.89 "HgN/A
3:00 PM86 °FPassing clouds.15 mph70%29.92 "HgN/A
2:00 PM86 °FPassing clouds.17 mph70%29.95 "HgN/A
1:00 PM86 °FPassing clouds.17 mph70%29.95 "HgN/A
12:00 PM86 °FPassing clouds.17 mph70%29.98 "HgN/A
11:00 AM84 °FPassing clouds.15 mph79%29.98 "HgN/A
10:00 AM84 °FPassing clouds.12 mph84%29.98 "HgN/A
9:00 AM84 °FScattered clouds.16 mph79%29.98 "HgN/A
8:00 AM82 °FScattered clouds.15 mph84%29.98 "HgN/A
7:00 AM82 °FPartly sunny.15 mph84%29.95 "HgN/A
6:00 AM81 °FPartly sunny.14 mph89%29.92 "HgN/A
5:00 AM81 °FPassing clouds.16 mph84%29.92 "HgN/A
4:00 AM79 °FPassing clouds.16 mph94%29.92 "HgN/A
3:00 AM79 °FPassing clouds.14 mph94%29.92 "HgN/A
2:00 AM79 °FPassing clouds.12 mph94%29.92 "HgN/A
12:00 AM79 °FPassing clouds.12 mph94%29.95 "HgN/A
11:00 PM
Jul 23
79 °FPassing clouds.9 mph89%29.98 "HgN/A
10:00 PM79 °FPassing clouds.9 mph89%29.98 "HgN/A
9:00 PM79 °FPassing clouds.9 mph89%29.95 "HgN/A
8:00 PM79 °FPassing clouds.12 mph89%29.95 "HgN/A
Weather by CustomWeather, © 2014

See weather overviewHow to use our weather pages